Flag Weather past 2 weeks in Apeldoorn, Netherlands

Now
37 °F

Fog.


Feels Like: 32 °F
Forecast: 41 / 46 °F
Wind: 6 mph from East

Location: Lelystad

Current Time: Nov 26, 2014 at 8:47:51 AM

Latest Report: Nov 26, 2014 at 7:00 AM


Visibility: 4 mi

Pressure: 30.05 "Hg

Humidity: 93%

Dew point: 35 °F

Location of ApeldoornLocation

Historic Weather in Apeldoorn — Graph

°F

Apeldoorn temperature yesterday

Maximum temperature yesterday: 46 °F (at 1:00 PM)
Minimum temperature yesterday: 31 °F (at 7:00 AM)
Average temperature yesterday: 39 °F

Past Weeks' High & Low Weather Summary

 TemperatureHumidityPressure
High57 °F (Nov 23, 1:00 PM)100% (Nov 11, 9:00 AM)30.35 "Hg (Nov 11, 9:00 AM)
Low31 °F (Nov 25, 7:00 AM)73% (Nov 13, 2:00 PM)29.47 "Hg (Nov 16, 2:00 PM)
Average46 °F92%29.92 "Hg
* Reported Nov 11 7:00 AM — Nov 26 7:00 AM, Apeldoorn, Weather by CustomWeather, © 2014

Note: Actual official high and low records may vary slightly from our data, if they occured in-between our weather recording intervals... More about our weather records

Advertising

Apeldoorn weather history for previous 24 hours

 ConditionsComfort  
Time TempWeatherWind HumidityBarometerVisibility
7:00 AM
Nov 26
37 °FFog.6 mph93%30.05 "Hg4 mi
4:00 AM38 °FFog.6 mph94%30.08 "Hg4 mi
1:00 AM40 °FFog.6 mph95%30.14 "Hg3 mi
12:00 AM40 °FFog.5 mph95%30.16 "Hg3 mi
11:00 PM
Nov 25
41 °FFog.6 mph95%30.17 "Hg3 mi
10:00 PM41 °FFog.6 mph96%30.18 "Hg3 mi
9:00 PM42 °FFog.6 mph97%30.19 "Hg3 mi
8:00 PM42 °FFog.6 mph96%30.19 "Hg4 mi
7:00 PM44 °FOvercast.5 mph93%30.21 "Hg6 mi
6:00 PM44 °FOvercast.5 mph93%30.21 "Hg6 mi
5:00 PM43 °FFog.3 mph96%30.23 "Hg4 mi
4:00 PM44 °FFog.3 mph93%30.24 "Hg5 mi
3:00 PM46 °FScattered clouds.5 mph90%30.25 "Hg7 mi
2:00 PM46 °FFog.5 mph91%30.26 "Hg5 mi
1:00 PM46 °FOvercast.5 mph89%30.29 "Hg7 mi
12:00 PM45 °FFog.2 mph93%30.31 "Hg6 mi
11:00 AM43 °FFog.2 mph94%30.32 "Hg4 mi
10:00 AM36 °FSunny.1 mph100%30.33 "Hg2 mi
9:00 AM32 °FPassing clouds.2 mph100%30.32 "Hg1 mi
8:00 AM32 °FClear.1 mph100%30.32 "Hg6 mi
Weather by CustomWeather, © 2014

See weather overviewHow to use our weather pages